Location: Most
(50.5330°N, 13.6500°E)
Time: 04:31:49
(UTC+02:00)

ISS - Pass Details

Date: 19 May 2021
Orbit: 417 x 422 km, 51.6° (Epoch: 13 June)

Event Time Altitude Azimuth Distance (km) Brightness Sun altitude
Rises 22:05:26 0° 253° (WSW) 2,360 0.4 -9.5°
Reaches altitude 10° 22:07:32 10° 253° (WSW) 1,498 -0.6 -9.7°
Maximum altitude 22:10:53 86° 169° (SSE) 426 -3.8 -10.1°
Drops below altitude 10° 22:14:17 10° 77° (ENE) 1,505 -1.2 -10.4°
Sets 22:16:23 0° 76° (ENE) 2,372 -0.2 -10.7°
